{"data":{"norad_id":63814,"intl_designator":"2025-092L","name":"STARLINK-34057","alt_names":[],"object_type":"PAYLOAD","status":"ACTIVE","operator":null,"country":"US","launch_date":"2025-05-04","launch_site_code":"AFETR","launch_vehicle":null,"mission":null,"orbit_class":"UNKNOWN","rcs_meters":null,"size_class":null,"mass_kg":null,"dimensions":null,"purposes":["comms"],"wikipedia_slug":null,"has_3d_model":false,"image_url":null,"decayed_at":null,"tle_current":{"epoch":"2026-05-25T03:55:05.013408Z","epoch_age_seconds":51191,"freshness":"FRESH","line1":"1 63814U 25092L   26145.16325247  .00011552  00000+0  42843-3 0  9995","line2":"2 63814  43.0004 100.3692 0000430 182.8894 177.1955 15.27597987 60318","mean_motion":15.27597987,"eccentricity":4.3e-5,"inclination_deg":43.0004,"raan_deg":100.3692,"arg_perigee_deg":182.8894,"mean_anomaly_deg":177.1955,"bstar":0.00042843,"rev_number":6031,"period_min":94.26563875146,"perigee_km":482.70020833315,"apogee_km":483.29026570554,"semimajor_km":6861.1322370193,"source":"CELESTRAK","updated_at":"2026-05-25T13:38:20.141393Z"}}}